Regional Weather Roundup
Issued by NWS

Home | Current Version | Previous Version | Graphics & Text | Print | Product List | Glossary On
Versions: 1 2 3 4 5 6 7 8 9 10 11 12 13 14 15 16 17 18 19 20 21 22 23 24 25 26 27 28 29 30 31 32 33 34 35 36 37 38 39 40 41 42 43 44 45 46 47 48 49 50
000
ASUS43 KMKX 081400
RWRWI

WISCONSIN REGIONAL WEATHER ROUNDUP
NATIONAL WEATHER SERVICE MILWAUKEE/SULLIVAN WI
800 AM CST THU DEC 08 2016

NOTE: "FAIR" INDICATES FEW OR NO CLOUDS BELOW 12,000 FEET WITH NO
SIGNIFICANT WEATHER AND/OR OBSTRUCTIONS TO VISIBILITY.

WIZ001-002-006>008-014>016-023>028-081500-
NORTHWEST WISCONSIN

CITY           SKY/WX    TMP DP  RH WIND       PRES   REMARKS
SUPERIOR ARPT  CLOUDY    23  17  77 NW13      30.19R WCI  11
ASHLAND        PTCLDY    22  18  85 NW9       30.13R WCI  12
HAYWARD        CLOUDY    20  16  84 W7        30.13R WCI  11
SIREN          CLOUDY    22  17  80 NW13G20   30.20R WCI  10
CUMBERLAND     CLOUDY    21  18  86 NW12      30.16R FOG     WCI   9
RICE LAKE      MOCLDY    21  17  85 W10G18    30.17R WCI  10
CHETEK         FLURRIES  19  17  88 W6        30.16R WCI  11
LADYSMITH      CLOUDY    22  18  83 NW14      30.12R WCI  10
EAU CLAIRE     NOT AVBL
MENOMONIE      PTCLDY    20  16  84 W13G20    30.20R WCI   7
NEW RICHMOND   FLURRIES  18  14  84 NW12      30.22R WCI   6
OSCEOLA        FLURRIES  19  16  86 W8        30.26R WCI   9
$$

WIZ003>005-009-010-017-018-081500-
NORTH CENTRAL WISCONSIN

CITY           SKY/WX    TMP DP  RH WIND       PRES   REMARKS
MANITOWISH WTR LGT SNOW  19  19 100 NW7       29.99R WCI  10
ARBOR VITAE    FLURRIES  22  19  87 W5        29.99R WCI  15
WOODRUFF       FLURRIES  22  19  87 W5        29.99R WCI  15
RHINELANDER    LGT SNOW  20  17  88 W10       30.01R FOG     WCI   9
EAGLE RIVER    FLURRIES  19  15  84 W10       29.96R WCI   8
LAND O LAKES   LGT SNOW  21  19  93 W5        29.97R WCI  14
PHILLIPS       CLOUDY    19  16  90 NW7       30.04R WCI  10
TOMAHAWK       FLURRIES  18  14  86 W9G16     30.03R WCI   6
MEDFORD        CLOUDY    16  13  88 W10G16    30.07R WCI   3
MERRILL        CLOUDY    19  15  84 W8        30.06R WCI   9
$$

WIZ029-030-035-036-043>047-081500-
CENTRAL WISCONSIN

CITY           SKY/WX    TMP DP  RH WIND       PRES   REMARKS
WAUSAU         CLOUDY    16  13  88 W9        30.07R WCI   4
MOSINEE        LGT SNOW  16  14  93 W10       30.09R WCI   3
MARSHFIELD     CLOUDY    15  11  83 W13       30.10R WCI   1
STEVENS POINT  LGT SNOW  14  11  85 W12       30.10R WCI   1
WAUPACA        FLURRIES  19  12  76 W10G18    30.10S WCI   7
WAUTOMA        NOT AVBL
WISC RAPIDS    LGT SNOW  16  12  84 W12       30.15R FOG     WCI   3
CAMP DOUGLAS   NOT AVBL
$$

WIZ011>013-019>022-031-037>040-048>050-081500-
NORTHEAST WISCONSIN

CITY           SKY/WX    TMP DP  RH WIND       PRES   REMARKS
ANTIGO         FLURRIES  16  13  89 W14       30.01R WCI   1
SHAWANO        PTCLDY    20  13  75 W12G17    30.06R WCI   8
OCONTO         MOCLDY    19  12  72 W10G24    30.02S WCI   8
STURGEON BAY   NOT AVBL
GREEN BAY      CLOUDY    20  14  77 W18       30.06R WCI   5
MANITOWOC      NOT AVBL
APPLETON       LGT SNOW  18  10  73 W18G25    30.06R HAZE    WCI   2
CLINTONVILLE   CLOUDY    18  12  79 W13G18    30.07R WCI   4
OSHKOSH        CLOUDY    17  11  77 W14G24    30.10R HAZE    WCI   3
$$

WIZ032>034-041-042-053>061-081500-
SOUTHWEST WISCONSIN

CITY           SKY/WX    TMP DP  RH WIND       PRES   REMARKS
LA CROSSE      CLOUDY    20  13  74 W10       30.25R WCI   9
SPARTA         FLURRIES  18  13  82 W5        30.20R WCI  11
VIROQUA        CLOUDY    15  11  85 W10       30.18R WCI   2
BOSCOBEL       CLOUDY    17   9  70 SW9       30.27R WCI   6
PRAIRIE DU CHI CLOUDY    16   9  71 W14       30.28S WCI   2
PLATTEVILLE    CLOUDY    14   9  81 W14G20    30.25R WCI  -1
$$

WIZ056-057-062-063-064-067-068-081500-
SOUTH CENTRAL WISCONSIN

CITY           SKY/WX    TMP DP  RH WIND       PRES   REMARKS
REEDSBURG      FLURRIES  15  10  81 W10G16    30.19R WCI   2
BARABOO/DELLS  FLURRIES  15  10  80 W10       30.17R WCI   2
LONE ROCK      NOT AVBL
MINERAL POINT  FLURRIES  14  10  85 W10       30.21R WCI   1
MADISON        FLURRIES  15   8  73 W12G18    30.19R WCI   2
MIDDLETON      PTCLDY    16  10  78 W14G20    30.19S WCI   1
WATERTOWN      PTCLDY    15  10  77 W10G20    30.16R WCI   3
MONROE         CLOUDY    14   9  79 W16G23    30.21R WCI  -2
JANESVILLE     CLOUDY    16   9  73 W13G18    30.22R WCI   2
$$

WIZ051-052-058>065-066-070>072-081500-
SOUTHEAST WISCONSIN

CITY           SKY/WX    TMP DP  RH WIND       PRES   REMARKS
MILWAUKEE      MOCLDY    19   8  62 W17G28    30.16R WCI   4
WAUKESHA       MOCLDY    16   9  73 W17G25    30.15R WCI   0
MILWAUKEE/TIMM PTCLDY    18   7  62 W16G24    30.15R WCI   3
RACINE         CLOUDY    19   8  62 W12G25    30.18R WCI   7
BURLINGTON     CLOUDY    16   9  75 W12G23    30.18R WCI   3
KENOSHA        CLOUDY    17   9  70 W18       30.18R WCI   1
FOND DU LAC    FLURRIES  18   9  68 W15G23    30.12R WCI   4
SHEBOYGAN      LGT SNOW  18  11  74 W16G24    30.09R WCI   3
WEST BEND      LGT SNOW  18  12  79 W15G23    30.11R WCI   3
JUNEAU         FLURRIES  15   9  78 W14       30.15R WCI   0
$$

LSZ147-162-081500-
LAKE SUPERIOR

STATION/POSITION TIME  TEMP    WIND        PRES    WAVE
                       AIR SEA DIR/SP/G            HT/PER
                 (UTC) (F)     (DEG/KT/KT) (MB)    (FT/S)
DEVILS ISLAND    1300   26     330/ 21/ 24 1020.1R
PORT WING        1330   26     320/ 19/ 24 1021.0R
SAXON HARBOR     1330   29     340/ 23/ 28 1018.6R
$$

LMZ867-665-643>646-081500-
LAKE MICHIGAN

STATION/POSITION TIME  TEMP    WIND        PRES    WAVE
                       AIR SEA DIR/SP/G            HT/PER
                 (UTC) (F)     (DEG/KT/KT) (MB)    (FT/S)
CHAMBERS ISLAND  1330   22     240/ 10/ 17 1014.6R
NORTHPORT PIER   1340   24     280/ 11/ 20 1014.6R
SISTER BAY       1251   24     300/ 23/ 28   N/A
ALGOMA LAKESHORE 1221          250/ 11/ 17   N/A
KEWAUNEE LAKESHO 1330   19     310/ 17/ 24 1016.0S
SHEBOYGAN LAKESH 1300   20     260/ 17/ 24 1019.4R
PORT WASHINGTON  1340   19     270/ 12/ 20 1021.3R
MILWAUKEE LAKESH 1330   19     280/ 18/ 23   N/A
KENOSHA   LAKESH 1300   18     270/ 18/ 24 1021.3
$$

TC  - TEMPERATURE IN CELSIUS
VSB - VISIBILITY IN STATUTE MILES
WCI - WIND CHILL INDEX
HX  - HEAT INDEX





USA.gov is the U.S. government's official web portal to all federal, state and local government web resources and services.